Location: Unspecified
(0.0000°N, 0.0000°E)
Time: 19:13:38
(UTC+00:00)

Vanguard 3 - Pass Details

Date: 24 September 2023
Orbit: 507 x 3241 km, 33.3° (Epoch: 29 November)

Event Time Altitude Azimuth Distance (km) Brightness Sun altitude
Rises 11:32:49 0° 220° (SW) 6,451 11.7 85.1°
Reaches altitude 10° 11:38:37 10° 206° (SSW) 5,785 11.6 86.6°
Maximum altitude 11:52:04 23° 160° (SSE) 5,126 11.6 89.5°
Drops below altitude 10° 12:05:44 10° 115° (ESE) 5,940 11.7 86.6°
Sets 12:11:41 0° 101° (E) 6,663 11.8 85.1°
